Fairfield, IA

6:06 AM CDT on October 21, 2019 (GMT -0500)
Fairfield Municipal

Weather History for KFFL - August, 2019

Change the Weather History Date:

Wednesday, August 21, 2019

  Actual Average Record
Temperature  
Mean Temperature 72 °F -  
Max Temperature 77 °F 85 °F 101 °F (1983)
Min Temperature 68 °F 61 °F 50 °F (1985)
Cooling Degree Days 8    
Growing Degree Days 22 (Base 50)    
Moisture  
Dew Point 70 °F    
Average Humidity 95    
Maximum Humidity 100    
Minimum Humidity 78    
Precipitation  
Precipitation 0.17 in - - ()
Sea Level Pressure  
Sea Level Pressure 30.01 in    
Wind  
Wind Speed 5 mph (NW)    
Max Wind Speed 23 mph    
Max Gust Speed 24 mph    
Visibility 8 miles    
Events      
Averages and records for this station are not official NWS values.
T = Trace of Precipitation, MM = Missing Value Source: NWS Daily Summary

Daily Weather History Graph

Daily Weather History Graph

Search for Another Location

Airport or City:

Astronomy

Aug. 21, 2019 Rise Set
Actual Time 6:23 AM CDT 7:58 PM CDT
Civil Twilight 5:54 AM CDT 8:27 PM CDT
Nautical Twilight 5:19 AM CDT 9:01 PM CDT
Astronomical Twilight 4:41 AM CDT 9:39 PM CDT
Moon 11:12 PM CDT 12:02 PM CDT
Length of Visible Light 14h 32m
Length of Day
13h 34m
Waning Gibbous, 69% of the Moon is Illuminated
Aug 21
Waning Gibbous
Aug 23
Last Quarter
Aug 30
New
Sep 5
First Quarter
Sep 13
Full

Hourly Weather History & Observations

Time (CDT) Temp. Dew Point Humidity Pressure Visibility Wind Dir Wind Speed Gust Speed Precip Events Conditions
12:35 AM 73.4 °F 73.4 °F 100% 30.00 in 10.0 mi SSE 4.6 mph - N/A   Partly Cloudy
12:55 AM 71.6 °F 71.6 °F 100% 29.99 in 10.0 mi Calm Calm - N/A   Clear
1:15 AM 73.4 °F 71.6 °F 94% 29.99 in 10.0 mi Calm Calm - N/A   Clear
1:55 AM 71.6 °F 71.6 °F 100% 29.99 in 9.0 mi WSW 4.6 mph - N/A   Mostly Cloudy
2:15 AM 73.4 °F 71.6 °F 94% 29.99 in 10.0 mi WSW 6.9 mph - N/A   Mostly Cloudy
2:35 AM 73.4 °F 71.6 °F 94% 29.98 in 10.0 mi WSW 5.8 mph - N/A   Partly Cloudy
2:55 AM 71.6 °F 71.6 °F 100% 29.96 in 10.0 mi West 4.6 mph - N/A   Clear
3:15 AM 71.6 °F 71.6 °F 100% 29.95 in 10.0 mi West 4.6 mph - N/A   Clear
3:35 AM 71.6 °F 71.6 °F 100% 29.92 in 9.0 mi Calm Calm - N/A   Clear
3:55 AM 69.8 °F 69.8 °F 100% 29.91 in 5.0 mi NE 4.6 mph - N/A   Clear
4:15 AM 69.8 °F 69.8 °F 100% 29.94 in 7.0 mi Calm Calm - N/A   Clear
4:55 AM 69.8 °F 69.8 °F 100% 29.95 in 2.5 mi Calm Calm - N/A   Clear
5:15 AM 68.0 °F 68.0 °F 100% 29.94 in 7.0 mi Calm Calm - N/A   Clear
5:35 AM 68.0 °F 68.0 °F 100% 29.96 in 4.0 mi Calm Calm - N/A   Clear
5:55 AM 68.0 °F 68.0 °F 100% 29.97 in 4.0 mi Calm Calm - N/A   Clear
6:15 AM 68.0 °F 68.0 °F 100% 29.98 in 7.0 mi Calm Calm - N/A   Partly Cloudy
6:35 AM 69.8 °F 69.8 °F 100% 29.99 in 6.0 mi SSW 4.6 mph - N/A   Partly Cloudy
6:55 AM 69.8 °F 69.8 °F 100% 29.99 in 6.0 mi Calm Calm - N/A   Clear
7:15 AM 69.8 °F 69.8 °F 100% 29.99 in 4.0 mi SSW 3.5 mph - N/A   Clear
7:35 AM 69.8 °F 69.8 °F 100% 29.99 in 3.0 mi Calm Calm - N/A   Clear
7:55 AM 69.8 °F 69.8 °F 100% 29.99 in 4.0 mi Calm Calm - N/A   Clear
8:15 AM 71.6 °F 71.6 °F 100% 29.99 in 7.0 mi Calm Calm - N/A   Clear
8:35 AM 71.6 °F 71.6 °F 100% 30.00 in 9.0 mi Calm Calm - N/A   Scattered Clouds
8:55 AM 71.6 °F 71.6 °F 100% 30.01 in 9.0 mi Calm Calm - N/A   Mostly Cloudy
9:15 AM 71.6 °F 71.6 °F 100% 30.02 in 6.0 mi SW 4.6 mph - N/A   Mostly Cloudy
9:35 AM 71.6 °F 71.6 °F 100% 30.05 in 9.0 mi WSW 13.8 mph 21.9 mph N/A   Overcast
9:55 AM 73.4 °F 71.6 °F 94% 30.05 in 10.0 mi West 13.8 mph 23.0 mph N/A   Overcast
10:15 AM 73.4 °F 71.6 °F 94% 30.07 in 10.0 mi West 15.0 mph 23.0 mph N/A   Mostly Cloudy
10:55 AM 69.8 °F 69.8 °F 100% 30.08 in 3.0 mi West 16.1 mph 24.2 mph 0.05 in   Mostly Cloudy
11:15 AM 69.8 °F 69.8 °F 100% 30.11 in 5.0 mi West 10.4 mph 17.3 mph N/A   Overcast
11:35 AM 69.8 °F 69.8 °F 100% 30.11 in 4.0 mi WNW 11.5 mph 19.6 mph N/A   Mostly Cloudy
11:55 AM 69.8 °F 69.8 °F 100% 30.09 in 5.0 mi WNW 10.4 mph 20.7 mph 0.09 in   Partly Cloudy
12:15 PM 69.8 °F 68.0 °F 94% 30.09 in 7.0 mi West 10.4 mph - N/A   Clear
12:35 PM 69.8 °F 68.0 °F 94% 30.05 in 8.0 mi NW 9.2 mph - N/A   Clear
12:55 PM 71.6 °F 68.0 °F 88% 30.03 in 10.0 mi WNW 9.2 mph - 0.03 in   Clear
1:15 PM 73.4 °F 69.8 °F 88% 30.03 in 10.0 mi West 8.1 mph - N/A   Clear
1:35 PM 75.2 °F 69.8 °F 83% 30.01 in 10.0 mi West 8.1 mph - N/A   Clear
1:55 PM 75.2 °F 69.8 °F 83% 30.00 in 10.0 mi West 6.9 mph 12.7 mph N/A   Clear
2:15 PM 77.0 °F 69.8 °F 78% 30.00 in 10.0 mi NW 4.6 mph - N/A   Clear
2:35 PM 77.0 °F 69.8 °F 78% 30.00 in 10.0 mi North 9.2 mph - N/A   Clear
2:55 PM 77.0 °F 69.8 °F 78% 30.01 in 10.0 mi NW 8.1 mph - N/A   Clear
3:15 PM 75.2 °F 69.8 °F 83% 29.91 in 10.0 mi NE 23.0 mph - N/A   Clear
3:35 PM 75.2 °F 69.8 °F 83% 29.92 in 10.0 mi North 16.1 mph - N/A   Clear
3:55 PM 75.2 °F 69.8 °F 83% 29.99 in 10.0 mi NW 12.7 mph - N/A   Partly Cloudy
4:15 PM 75.2 °F 69.8 °F 83% 30.00 in 10.0 mi NW 11.5 mph 18.4 mph N/A   Clear
4:35 PM 75.2 °F 69.8 °F 83% 30.01 in 10.0 mi NW 12.7 mph - N/A   Clear
4:55 PM 75.2 °F 71.6 °F 89% 30.01 in 10.0 mi NW 10.4 mph - N/A   Partly Cloudy
5:15 PM 75.2 °F 71.6 °F 89% 30.00 in 10.0 mi NNW 10.4 mph - N/A   Scattered Clouds
5:35 PM 75.2 °F 71.6 °F 89% 30.00 in - NNW 6.9 mph - N/A   Unknown
5:55 PM 75.2 °F 71.6 °F 89% 30.00 in 10.0 mi Calm Calm - N/A   Scattered Clouds
6:15 PM 73.4 °F 71.6 °F 94% 30.00 in 10.0 mi North 3.5 mph - N/A   Mostly Cloudy
6:35 PM 73.4 °F 71.6 °F 94% 30.00 in 10.0 mi West 3.5 mph - N/A   Overcast
6:55 PM 73.4 °F 71.6 °F 94% 30.01 in 10.0 mi West 4.6 mph - N/A   Overcast
7:15 PM 73.4 °F 71.6 °F 94% 30.02 in 10.0 mi WNW 5.8 mph - N/A   Mostly Cloudy
7:35 PM 73.4 °F 71.6 °F 94% 30.02 in 10.0 mi Calm Calm - N/A   Overcast
7:55 PM 71.6 °F 71.6 °F 100% 30.02 in 10.0 mi Calm Calm - N/A   Overcast
8:15 PM 71.6 °F 71.6 °F 100% 30.01 in 10.0 mi North 3.5 mph - N/A   Mostly Cloudy
8:35 PM 71.6 °F 71.6 °F 100% 30.01 in 10.0 mi North 3.5 mph - N/A   Overcast
8:55 PM 71.6 °F 69.8 °F 94% 30.02 in 10.0 mi NNW 4.6 mph - N/A   Overcast
9:15 PM 71.6 °F 69.8 °F 94% 30.02 in 10.0 mi NNW 4.6 mph - N/A   Overcast
9:35 PM 69.8 °F 69.8 °F 100% 30.02 in 10.0 mi NNW 6.9 mph - N/A   Overcast
9:55 PM 69.8 °F 68.0 °F 94% 30.02 in 10.0 mi North 6.9 mph - N/A   Overcast
10:15 PM 69.8 °F 68.0 °F 94% 30.02 in 10.0 mi NNW 5.8 mph - N/A   Overcast
10:35 PM 69.8 °F 68.0 °F 94% 30.02 in 10.0 mi North 3.5 mph - N/A   Overcast
10:55 PM 69.8 °F 69.8 °F 100% 30.03 in 10.0 mi NW 4.6 mph - N/A   Overcast
11:15 PM 69.8 °F 68.0 °F 94% 30.04 in 10.0 mi North 4.6 mph - N/A   Overcast
11:35 PM 69.8 °F 68.0 °F 94% 30.04 in 10.0 mi North 8.1 mph - N/A   Overcast
11:55 PM 68.0 °F 66.2 °F 94% 30.05 in 10.0 mi North 6.9 mph - N/A   Overcast